WMT276 LROP-LIBD

Flight info

Callsign WMT276
Flight time 1h 34m
Altitude 34000
Route POLUN1K/08L POLUN DCT VIKBI DCT CRV DCT ANASA DCT RAMAP DCT POD DCT PINUK DCT CRAYE/N0454F350 DCT ENOXA
Aircraft A21N/M-SDE2E3FGHIRWXY/LB1

Departure

Time 2026-05-09 12:56
Airport Bucharest Henri Coandă International Airport (LROP)

Arrival

Time 2026-05-09 14:31
Airport Bari Karol Wojtyła International Airport (LIBD)
Time Latitude Longitude Altitude Speed Heading
2026-05-09 12:01 44.56945 26.09712 323 ft 0 kts 173°
2026-05-09 12:49 44.56930 26.09715 326 ft 4 kts 173°
2026-05-09 12:49 44.56907 26.09703 326 ft 6 kts 220°
2026-05-09 12:49 44.56887 26.09640 326 ft 8 kts 266°
2026-05-09 12:50 44.56880 26.09549 326 ft 10 kts 263°
2026-05-09 12:50 44.56868 26.09399 326 ft 13 kts 265°
2026-05-09 12:50 44.56860 26.09263 326 ft 15 kts 265°
2026-05-09 12:50 44.56854 26.09164 326 ft 16 kts 264°
2026-05-09 12:51 44.56841 26.09001 326 ft 18 kts 263°
2026-05-09 12:51 44.56828 26.08828 326 ft 15 kts 264°
2026-05-09 12:51 44.56818 26.08703 326 ft 12 kts 263°
2026-05-09 12:51 44.56822 26.08582 324 ft 14 kts 295°
2026-05-09 12:52 44.56917 26.08552 326 ft 15 kts 352°
2026-05-09 12:52 44.57029 26.08533 326 ft 17 kts 354°
2026-05-09 12:52 44.57151 26.08516 326 ft 19 kts 354°
2026-05-09 12:52 44.57284 26.08497 326 ft 20 kts 354°
2026-05-09 12:53 44.57427 26.08477 324 ft 21 kts 354°
2026-05-09 12:53 44.57509 26.08465 325 ft 4 kts 354°
2026-05-09 12:53 44.57516 26.08464 326 ft 0 kts 354°
2026-05-09 12:54 44.57528 26.08462 324 ft 5 kts 354°
2026-05-09 12:55 44.57581 26.08455 326 ft 11 kts 354°
2026-05-09 12:55 44.57653 26.08445 327 ft 3 kts 358°
2026-05-09 12:55 44.57667 26.08476 326 ft 5 kts 77°
2026-05-09 12:55 44.57674 26.08579 329 ft 28 kts 84°
2026-05-09 12:56 44.57727 26.09241 321 ft 107 kts 84°
2026-05-09 12:56 44.57826 26.10574 326 ft 165 kts 83°
2026-05-09 12:56 44.57957 26.12301 672 ft 183 kts 82°
2026-05-09 12:56 44.58069 26.14101 1411 ft 183 kts 84°
2026-05-09 12:57 44.58165 26.15896 2114 ft 189 kts 84°
2026-05-09 12:57 44.58312 26.17786 2612 ft 211 kts 85°
2026-05-09 12:57 44.58484 26.19978 2978 ft 239 kts 84°
2026-05-09 12:57 44.58666 26.22361 3701 ft 251 kts 84°
2026-05-09 12:58 44.58852 26.24829 4575 ft 256 kts 84°
2026-05-09 12:58 44.59035 26.27332 5494 ft 260 kts 87°
2026-05-09 12:58 44.58878 26.29861 6397 ft 264 kts 107°
2026-05-09 12:58 44.57989 26.32112 7231 ft 269 kts 132°
2026-05-09 12:59 44.56470 26.33648 8051 ft 274 kts 156°
2026-05-09 12:59 44.54598 26.34234 8870 ft 279 kts 173°
2026-05-09 12:59 44.52652 26.34450 9702 ft 283 kts 174°
2026-05-09 12:59 44.50662 26.34659 10342 ft 294 kts 174°
2026-05-09 13:00 44.48549 26.34913 10664 ft 314 kts 173°
2026-05-09 13:00 44.46307 26.35205 10945 ft 334 kts 173°
2026-05-09 13:00 44.43917 26.35529 11237 ft 354 kts 174°
2026-05-09 13:00 44.41425 26.35505 11785 ft 364 kts 187°
2026-05-09 13:01 44.38990 26.34497 12508 ft 369 kts 205°
2026-05-09 13:01 44.36871 26.32458 13300 ft 373 kts 223°
2026-05-09 13:01 44.35284 26.29584 13999 ft 379 kts 241°
2026-05-09 13:01 44.34342 26.26125 14666 ft 382 kts 253°
2026-05-09 13:02 44.33636 26.22527 15344 ft 386 kts 254°
2026-05-09 13:02 44.32930 26.18891 15987 ft 390 kts 254°
2026-05-09 13:02 44.32196 26.15219 16650 ft 393 kts 253°
2026-05-09 13:02 44.31453 26.11580 17302 ft 397 kts 253°
2026-05-09 13:03 44.30676 26.07810 17979 ft 400 kts 253°
2026-05-09 13:03 44.29910 26.04114 18613 ft 402 kts 253°
2026-05-09 13:03 44.29129 26.00359 19194 ft 405 kts 253°
2026-05-09 13:03 44.28340 25.96570 19765 ft 407 kts 253°
2026-05-09 13:04 44.27544 25.92761 20318 ft 410 kts 253°
2026-05-09 13:04 44.26678 25.88955 20897 ft 412 kts 251°
2026-05-09 13:04 44.25796 25.85127 21446 ft 415 kts 253°
2026-05-09 13:04 44.25026 25.81230 21975 ft 418 kts 254°
2026-05-09 13:05 44.24332 25.77274 22465 ft 422 kts 259°
2026-05-09 13:05 44.24065 25.73191 22957 ft 425 kts 268°
2026-05-09 13:05 44.24036 25.69056 23471 ft 428 kts 269°
2026-05-09 13:05 44.24029 25.64887 23881 ft 430 kts 269°
2026-05-09 13:06 44.24015 25.60698 24266 ft 433 kts 269°
2026-05-09 13:06 44.23991 25.56490 24668 ft 435 kts 269°
2026-05-09 13:06 44.23961 25.52271 25066 ft 437 kts 269°
2026-05-09 13:06 44.23927 25.48029 25463 ft 438 kts 269°
2026-05-09 13:07 44.23892 25.43762 25834 ft 440 kts 269°
2026-05-09 13:07 44.23854 25.39484 26206 ft 442 kts 269°
2026-05-09 13:07 44.23757 25.35241 26568 ft 444 kts 266°
2026-05-09 13:07 44.23590 25.30948 26948 ft 445 kts 267°
2026-05-09 13:08 44.23470 25.26624 27299 ft 447 kts 268°
2026-05-09 13:08 44.23476 25.22276 27635 ft 450 kts 272°
2026-05-09 13:08 44.23721 25.17921 27960 ft 452 kts 274°
2026-05-09 13:08 44.23978 25.13542 28354 ft 452 kts 274°
2026-05-09 13:09 44.24190 25.09176 28787 ft 451 kts 273°
2026-05-09 13:09 44.24372 25.04817 29220 ft 449 kts 272°
2026-05-09 13:09 44.24540 25.00472 29651 ft 448 kts 272°
2026-05-09 13:09 44.24702 24.96137 30066 ft 447 kts 272°
2026-05-09 13:10 44.24862 24.91827 30446 ft 445 kts 272°
2026-05-09 13:10 44.25021 24.87529 30826 ft 442 kts 272°
2026-05-09 13:10 44.25177 24.83245 31193 ft 440 kts 272°
2026-05-09 13:10 44.25331 24.78990 31563 ft 438 kts 272°
2026-05-09 13:11 44.25483 24.74756 31896 ft 436 kts 272°
2026-05-09 13:11 44.25632 24.70537 32236 ft 434 kts 272°
2026-05-09 13:11 44.25788 24.66341 32563 ft 432 kts 274°
2026-05-09 13:11 44.26093 24.62178 32874 ft 431 kts 276°
2026-05-09 13:12 44.26442 24.58026 33192 ft 429 kts 276°
2026-05-09 13:12 44.26791 24.53900 33492 ft 428 kts 276°
2026-05-09 13:12 44.27136 24.49795 33785 ft 426 kts 276°
2026-05-09 13:12 44.27480 24.45686 34006 ft 424 kts 277°
2026-05-09 13:13 44.27815 24.41664 34046 ft 421 kts 277°
2026-05-09 13:13 44.28485 24.33556 34026 ft 420 kts 277°
2026-05-09 13:14 44.29170 24.25451 34025 ft 420 kts 277°
2026-05-09 13:16 44.31519 23.92922 34012 ft 423 kts 270°
2026-05-09 13:16 44.31681 23.84720 34031 ft 422 kts 274°
2026-05-09 13:17 44.31848 23.76549 34036 ft 423 kts 272°
2026-05-09 13:17 44.31868 23.68351 34010 ft 422 kts 271°
2026-05-09 13:18 44.31854 23.60179 34017 ft 420 kts 271°
2026-05-09 13:18 44.31809 23.52010 34029 ft 420 kts 271°
2026-05-09 13:19 44.31782 23.43860 34035 ft 420 kts 271°
2026-05-09 13:19 44.31756 23.35755 34034 ft 418 kts 271°
2026-05-09 13:20 44.31719 23.27638 34043 ft 417 kts 271°
2026-05-09 13:20 44.31688 23.19544 34034 ft 417 kts 271°
2026-05-09 13:21 44.31647 23.11432 34034 ft 417 kts 271°
2026-05-09 13:21 44.31601 23.03321 34036 ft 418 kts 271°
2026-05-09 13:22 44.31543 22.95202 34027 ft 417 kts 271°
2026-05-09 13:22 44.31475 22.87159 34026 ft 416 kts 271°
2026-05-09 13:23 44.31294 22.66963 34031 ft 416 kts 271°
2026-05-09 13:24 44.31037 22.58894 34020 ft 418 kts 263°
2026-05-09 13:24 44.30300 22.54945 34021 ft 422 kts 252°
2026-05-09 13:24 44.29014 22.51308 34013 ft 427 kts 241°
2026-05-09 13:25 44.25532 22.44610 34026 ft 426 kts 237°
2026-05-09 13:26 44.20237 22.34661 34024 ft 425 kts 238°
2026-05-09 13:26 44.16741 22.28010 34025 ft 425 kts 238°
2026-05-09 13:27 44.13243 22.21372 34018 ft 423 kts 237°
2026-05-09 13:27 44.09759 22.14783 34025 ft 422 kts 237°
2026-05-09 13:28 44.06269 22.08192 34031 ft 422 kts 237°
2026-05-09 13:28 44.02786 22.01613 34032 ft 422 kts 237°
2026-05-09 13:29 43.99296 21.95058 34030 ft 423 kts 237°
2026-05-09 13:29 43.95792 21.88496 34037 ft 422 kts 237°
2026-05-09 13:30 43.92325 21.81998 34041 ft 422 kts 236°
2026-05-09 13:30 43.88827 21.75467 34046 ft 422 kts 236°
2026-05-09 13:31 43.85317 21.68938 34038 ft 422 kts 236°
2026-05-09 13:31 43.81808 21.62418 34040 ft 421 kts 236°
2026-05-09 13:32 43.78301 21.55912 34046 ft 422 kts 236°
2026-05-09 13:32 43.73623 21.47263 34046 ft 422 kts 236°
2026-05-09 13:33 43.70108 21.40772 34043 ft 421 kts 236°
2026-05-09 13:33 43.66589 21.34297 34049 ft 421 kts 236°
2026-05-09 13:34 43.63067 21.27832 34057 ft 421 kts 236°
2026-05-09 13:34 43.59538 21.21366 34058 ft 421 kts 236°
2026-05-09 13:35 43.56004 21.14904 34056 ft 421 kts 236°
2026-05-09 13:35 43.52471 21.08455 34068 ft 421 kts 236°
2026-05-09 13:36 43.48937 21.02023 34079 ft 421 kts 235°
2026-05-09 13:36 43.45422 20.95644 34079 ft 421 kts 236°
2026-05-09 13:37 43.41871 20.89232 34075 ft 421 kts 234°
2026-05-09 13:37 43.38104 20.83035 34081 ft 422 kts 233°
2026-05-09 13:38 43.34311 20.76865 34085 ft 423 kts 233°
2026-05-09 13:38 43.30510 20.70692 34086 ft 423 kts 233°
2026-05-09 13:39 43.26714 20.64531 34084 ft 423 kts 233°
2026-05-09 13:39 43.22934 20.58416 34095 ft 423 kts 233°
2026-05-09 13:40 43.19108 20.52231 34098 ft 423 kts 233°
2026-05-09 13:40 43.15298 20.46081 34094 ft 423 kts 234°
2026-05-09 13:41 43.11484 20.39940 34072 ft 424 kts 235°
2026-05-09 13:41 43.07654 20.33803 34087 ft 425 kts 235°
2026-05-09 13:42 43.03812 20.27647 34088 ft 425 kts 235°
2026-05-09 13:42 43.01525 20.23989 34088 ft 425 kts 235°
2026-05-09 13:43 43.00884 20.22966 34086 ft 425 kts 235°
2026-05-09 13:44 42.97037 20.16831 34091 ft 425 kts 235°
2026-05-09 13:44 42.96435 20.15870 34096 ft 425 kts 235°
2026-05-09 13:46 42.94104 20.12159 34082 ft 426 kts 236°
2026-05-09 13:46 42.90278 20.06067 34087 ft 426 kts 237°
2026-05-09 13:47 42.86407 19.99932 34087 ft 426 kts 237°
2026-05-09 13:47 42.82549 19.93814 34088 ft 426 kts 237°
2026-05-09 13:48 42.78672 19.87691 34089 ft 426 kts 237°
2026-05-09 13:48 42.74792 19.81579 34086 ft 427 kts 237°
2026-05-09 13:49 42.70914 19.75474 34070 ft 423 kts 238°
2026-05-09 13:49 42.67064 19.69436 34072 ft 422 kts 238°
2026-05-09 13:50 42.63229 19.63430 34083 ft 422 kts 238°
2026-05-09 13:50 42.59392 19.57419 34085 ft 421 kts 238°
2026-05-09 13:51 42.55574 19.51461 34081 ft 421 kts 238°
2026-05-09 13:51 42.51736 19.45486 34063 ft 420 kts 238°
2026-05-09 13:52 42.47911 19.39545 34077 ft 417 kts 238°
2026-05-09 13:52 42.44097 19.33624 34083 ft 417 kts 238°
2026-05-09 13:53 42.40299 19.27747 34078 ft 416 kts 238°
2026-05-09 13:53 42.36232 19.22110 34064 ft 421 kts 233°
2026-05-09 13:54 42.31979 19.16675 34078 ft 420 kts 233°
2026-05-09 13:54 42.27737 19.11242 34070 ft 420 kts 233°
2026-05-09 13:55 42.23512 19.05842 34080 ft 418 kts 233°
2026-05-09 13:55 42.19294 19.00453 34071 ft 417 kts 233°
2026-05-09 13:56 42.15093 18.95109 34069 ft 417 kts 233°
2026-05-09 13:56 42.10873 18.89751 34078 ft 417 kts 233°
2026-05-09 13:57 42.06657 18.84396 34076 ft 417 kts 233°
2026-05-09 13:57 42.02434 18.79051 34062 ft 416 kts 233°
2026-05-09 13:58 41.98226 18.73730 34068 ft 413 kts 232°
2026-05-09 13:58 41.94035 18.68433 34067 ft 414 kts 232°
2026-05-09 13:59 41.89831 18.63152 34068 ft 414 kts 232°
2026-05-09 13:59 41.85624 18.57864 34056 ft 413 kts 232°
2026-05-09 14:00 41.82876 18.54346 34066 ft 412 kts 233°
2026-05-09 14:00 41.77353 18.47271 34068 ft 412 kts 233°
2026-05-09 14:01 41.73194 18.41976 34069 ft 412 kts 232°
2026-05-09 14:01 41.69050 18.36696 34065 ft 411 kts 232°
2026-05-09 14:02 41.64891 18.31424 34068 ft 412 kts 232°
2026-05-09 14:02 41.60724 18.26146 34068 ft 413 kts 232°
2026-05-09 14:03 41.56552 18.20853 34067 ft 413 kts 232°
2026-05-09 14:03 41.52375 18.15571 34063 ft 413 kts 232°
2026-05-09 14:04 41.48417 18.10097 34071 ft 407 kts 237°
2026-05-09 14:04 41.44734 18.04424 34069 ft 407 kts 237°
2026-05-09 14:05 41.40997 17.98688 34066 ft 406 kts 237°
2026-05-09 14:05 41.37289 17.93012 34066 ft 405 kts 237°
2026-05-09 14:06 41.35460 17.90218 33857 ft 402 kts 237°
2026-05-09 14:06 41.33617 17.87402 32869 ft 405 kts 237°
2026-05-09 14:06 41.31759 17.84566 31949 ft 408 kts 236°
2026-05-09 14:06 41.29874 17.81692 31127 ft 411 kts 236°
2026-05-09 14:07 41.27994 17.78832 30382 ft 412 kts 236°
2026-05-09 14:07 41.26109 17.75966 29629 ft 411 kts 235°
2026-05-09 14:07 41.24229 17.73110 28903 ft 409 kts 235°
2026-05-09 14:07 41.22352 17.70246 28222 ft 410 kts 236°
2026-05-09 14:08 41.20713 17.67188 27580 ft 399 kts 246°
2026-05-09 14:08 41.19645 17.63905 26931 ft 389 kts 257°
2026-05-09 14:08 41.19016 17.60443 26284 ft 384 kts 262°
2026-05-09 14:08 41.18474 17.56978 25658 ft 381 kts 262°
2026-05-09 14:09 41.17934 17.53548 25043 ft 379 kts 262°
2026-05-09 14:09 41.17384 17.50131 24415 ft 378 kts 262°
2026-05-09 14:09 41.16828 17.46719 23778 ft 378 kts 262°
2026-05-09 14:09 41.16274 17.43308 23063 ft 376 kts 262°
2026-05-09 14:10 41.15177 17.36558 21717 ft 372 kts 262°
2026-05-09 14:10 41.14630 17.33214 21090 ft 370 kts 262°
2026-05-09 14:10 41.14077 17.29885 20480 ft 368 kts 261°
2026-05-09 14:11 41.13527 17.26586 19903 ft 365 kts 261°
2026-05-09 14:11 41.12980 17.23305 19365 ft 362 kts 262°
2026-05-09 14:11 41.12622 17.21137 19009 ft 361 kts 262°
2026-05-09 14:11 41.12082 17.17891 18489 ft 361 kts 261°
2026-05-09 14:12 41.11538 17.14634 17914 ft 360 kts 261°
2026-05-09 14:12 41.10821 17.10342 17198 ft 360 kts 261°
2026-05-09 14:12 41.10454 17.08154 16818 ft 359 kts 261°
2026-05-09 14:12 41.09914 17.04931 16307 ft 359 kts 261°
2026-05-09 14:13 41.09372 17.01704 15820 ft 357 kts 261°
2026-05-09 14:14 41.04190 16.79759 12283 ft 356 kts 252°
2026-05-09 14:15 41.03329 16.76711 11770 ft 349 kts 252°
2026-05-09 14:15 41.02484 16.73723 11236 ft 344 kts 252°
2026-05-09 14:15 41.01658 16.70807 10948 ft 332 kts 252°
2026-05-09 14:15 41.00864 16.68010 10743 ft 318 kts 252°
2026-05-09 14:16 41.00101 16.65332 10567 ft 303 kts 251°
2026-05-09 14:16 40.99369 16.62777 10412 ft 290 kts 251°
2026-05-09 14:16 40.98671 16.60335 10262 ft 277 kts 251°
2026-05-09 14:16 40.98003 16.58010 10118 ft 264 kts 252°
2026-05-09 14:17 40.97360 16.55761 9795 ft 260 kts 252°
2026-05-09 14:17 40.96721 16.53522 9362 ft 259 kts 252°
2026-05-09 14:17 40.96089 16.51311 9094 ft 255 kts 252°
2026-05-09 14:17 40.95461 16.49109 9047 ft 256 kts 251°
2026-05-09 14:18 40.94825 16.46900 9062 ft 256 kts 251°
2026-05-09 14:18 40.94201 16.44732 9071 ft 256 kts 251°
2026-05-09 14:18 40.93569 16.42526 9074 ft 256 kts 252°
2026-05-09 14:18 40.92943 16.40320 9076 ft 256 kts 252°
2026-05-09 14:19 40.92314 16.38112 9077 ft 256 kts 252°
2026-05-09 14:19 40.91683 16.35911 9076 ft 257 kts 251°
2026-05-09 14:19 40.91049 16.33707 9074 ft 256 kts 251°
2026-05-09 14:19 40.90412 16.31496 9077 ft 257 kts 251°
2026-05-09 14:20 40.89776 16.29289 9072 ft 257 kts 251°
2026-05-09 14:20 40.89140 16.27090 9075 ft 257 kts 251°
2026-05-09 14:20 40.88503 16.24881 9075 ft 257 kts 252°
2026-05-09 14:21 40.88688 16.20422 9070 ft 252 kts 305°
2026-05-09 14:21 40.90023 16.18941 9073 ft 255 kts 333°
2026-05-09 14:21 40.91685 16.18101 9088 ft 256 kts 339°
2026-05-09 14:21 40.93371 16.17336 9084 ft 256 kts 339°
2026-05-09 14:22 40.95117 16.16897 9061 ft 260 kts
2026-05-09 14:22 40.96830 16.17670 9047 ft 266 kts 33°
2026-05-09 14:22 40.98054 16.19525 8600 ft 275 kts 64°
2026-05-09 14:22 40.98669 16.21893 8227 ft 274 kts 71°
2026-05-09 14:23 40.99235 16.24294 7854 ft 272 kts 70°
2026-05-09 14:23 40.99832 16.26654 7531 ft 268 kts 69°
2026-05-09 14:23 41.00453 16.28970 7233 ft 263 kts 68°
2026-05-09 14:23 41.01077 16.31215 7027 ft 254 kts 68°
2026-05-09 14:24 41.01684 16.33364 6857 ft 243 kts 69°
2026-05-09 14:24 41.02278 16.35431 6562 ft 239 kts 66°
2026-05-09 14:24 41.02912 16.37462 6155 ft 240 kts 67°
2026-05-09 14:24 41.03509 16.39541 5688 ft 242 kts 68°
2026-05-09 14:25 41.04101 16.41624 5300 ft 241 kts 67°
2026-05-09 14:25 41.04681 16.43670 4961 ft 238 kts 67°
2026-05-09 14:25 41.05266 16.45734 4613 ft 234 kts 68°
2026-05-09 14:25 41.05830 16.47723 4302 ft 228 kts 68°
2026-05-09 14:26 41.06382 16.49673 4007 ft 223 kts 67°
2026-05-09 14:26 41.06912 16.51545 3791 ft 210 kts 67°
2026-05-09 14:26 41.07416 16.53322 3536 ft 203 kts 67°
2026-05-09 14:26 41.07900 16.55031 3262 ft 198 kts 67°
2026-05-09 14:27 41.08378 16.56723 2975 ft 194 kts 66°
2026-05-09 14:27 41.08846 16.58373 2687 ft 189 kts 67°
2026-05-09 14:27 41.09302 16.59984 2423 ft 184 kts 67°
2026-05-09 14:27 41.09743 16.61545 2218 ft 174 kts 66°
2026-05-09 14:28 41.10146 16.62973 2032 ft 157 kts 66°
2026-05-09 14:28 41.10509 16.64257 1776 ft 137 kts 65°
2026-05-09 14:28 41.10837 16.65413 1566 ft 132 kts 66°
2026-05-09 14:28 41.11161 16.66555 1401 ft 133 kts 66°
2026-05-09 14:29 41.11485 16.67704 1243 ft 132 kts 65°
2026-05-09 14:29 41.11805 16.68840 1094 ft 131 kts 65°
2026-05-09 14:29 41.12127 16.69970 912 ft 131 kts 64°
2026-05-09 14:29 41.12447 16.71109 696 ft 131 kts 66°
2026-05-09 14:30 41.12778 16.72251 472 ft 134 kts 67°
2026-05-09 14:30 41.13092 16.73400 301 ft 131 kts 66°
2026-05-09 14:30 41.13415 16.74527 163 ft 129 kts 65°
2026-05-09 14:30 41.13708 16.75533 143 ft 106 kts 66°
2026-05-09 14:31 41.13871 16.76106 138 ft 35 kts 69°
2026-05-09 14:31 41.13943 16.76368 134 ft 31 kts 70°
2026-05-09 14:31 41.14002 16.76581 132 ft 14 kts 74°
2026-05-09 14:31 41.13974 16.76702 132 ft 13 kts 107°
2026-05-09 14:32 41.13929 16.76813 131 ft 15 kts 143°
2026-05-09 14:32 41.13873 16.76786 132 ft 2 kts 254°
2026-05-09 14:32 41.13863 16.76754 132 ft 5 kts 247°
2026-05-09 14:32 41.13845 16.76698 133 ft 8 kts 247°
2026-05-09 14:33 41.13821 16.76611 134 ft 12 kts 251°
2026-05-09 14:33 41.13780 16.76551 136 ft 7 kts 153°
2026-05-09 14:33 41.13738 16.76596 141 ft 6 kts 127°
2026-05-09 14:33 41.13741 16.76655 140 ft 6 kts 69°
2026-05-09 14:34 41.13756 16.76709 134 ft 7 kts 69°
2026-05-09 14:34 41.13775 16.76772 133 ft 8 kts 69°
2026-05-09 14:34 41.13761 16.76796 132 ft 5 kts 167°
2026-05-09 14:34 41.13720 16.76807 133 ft 7 kts 176°
2026-05-09 14:35 41.13711 16.76802 133 ft 2 kts 210°
2026-05-09 14:35 41.13702 16.76797 133 ft 0 kts 203°